This is the latest recevied weather packets stored in our database for station/object EB2EMZ-14. If no packets are shown the sender has not sent any weather packets the latest 10 day(s).
| Time | Temp. | Humidity | Pressure | Rain* | Wind** | Luminosity | Snow |
|---|---|---|---|---|---|---|---|
| 1777828218 | 12.78° C | 79% | 1010.1 hPa | 0 mm | - | 0 W/m² | - |
| 1777827919 | 13.33° C | 78% | 1009.9 hPa | 0 mm | - | 0 W/m² | - |
| 1777827618 | 13.33° C | 78% | 1009.8 hPa | 0 mm | - | 0 W/m² | - |
| 1777827318 | 13.33° C | 77% | 1009.9 hPa | 0 mm | - | 0 W/m² | - |
| 1777827018 | 13.89° C | 76% | 1010 hPa | 0 mm | - | 0 W/m² | - |
| 1777826718 | 14.44° C | 76% | 1010 hPa | 0 mm | - | 0 W/m² | - |
| 1777826418 | 14.44° C | 76% | 1010.1 hPa | 0.51 mm | - | 0 W/m² | - |
| 1777826117 | 15° C | 76% | 1010.2 hPa | 1.02 mm | - | 0 W/m² | - |
| 1777825818 | 15.56° C | 76% | 1010.2 hPa | 1.02 mm | - | 0 W/m² | - |
| 1777825518 | 15.56° C | 76% | 1009.9 hPa | 1.02 mm | - | 0 W/m² | - |
| 1777825218 | 16.11° C | 75% | 1009.8 hPa | 1.02 mm | - | 0 W/m² | - |
| 1777824917 | 16.11° C | 75% | 1009.7 hPa | 1.02 mm | - | 0 W/m² | - |
| 1777824618 | 16.11° C | 74% | 1009.6 hPa | 1.02 mm | - | 0 W/m² | - |
| 1777824318 | 16.67° C | 74% | 1009.6 hPa | 1.02 mm | - | 0 W/m² | - |
| 1777824017 | 16.67° C | 72% | 1009.5 hPa | 1.02 mm | - | 0 W/m² | - |
| 1777823717 | 17.22° C | 72% | 1009.3 hPa | 1.02 mm | - | 0 W/m² | - |
| 1777823418 | 17.22° C | 72% | 1009.4 hPa | 1.02 mm | - | 0 W/m² | - |
| 1777823119 | 17.22° C | 71% | 1009.3 hPa | 1.02 mm | - | 0 W/m² | - |
| 1777822818 | 17.22° C | 69% | 1009.6 hPa | 0.51 mm | - | 0 W/m² | - |
| 1777822517 | 17.78° C | 67% | 1009.5 hPa | 0 mm | - | 0 W/m² | - |
| 1777822217 | 17.78° C | 66% | 1009.6 hPa | 0 mm | - | 0 W/m² | - |
| 1777821917 | 18.33° C | 64% | 1009.7 hPa | 0 mm | - | 0 W/m² | - |
| 1777821618 | 18.33° C | 63% | 1009.7 hPa | 0 mm | - | 0 W/m² | - |
| 1777821317 | 18.89° C | 62% | 1009.6 hPa | 0 mm | - | 0 W/m² | - |
| 1777821018 | 18.89° C | 61% | 1009.5 hPa | 0 mm | - | 0 W/m² | - |
* Rain latest hour (hover to see other rain measurements)
** Current wind speed in m/s (hover to see current wind gust speed)